Location: Medlow Airstrip Trail, Medlow Bath NSW 2780, Australia
(33.6682°S, 150.3233°E)
Time: 21:25:29
(UTC+11:00)

Explorer 11/Cluster Stage 4 - Pass Details

Date: 27 September 2019
Orbit: 467 x 1259 km, 28.8° (Epoch: 22 October)

Event Time Altitude Azimuth Distance (km) Brightness Sun altitude
Rises 10:28:21 0° 274° (W) 2,972 9.4 52.5°
Reaches altitude 10° 10:30:35 10° 280° (W) 2,168 8.8 52.8°
Maximum altitude 10:35:30 45° 352° (N) 1,097 8.7 53.4°
Drops below altitude 10° 10:41:37 10° 63° (ENE) 2,699 10.0 54.0°
Sets 10:44:41 0° 68° (ENE) 3,780 10.5 54.3°
